Simultaneous Nadir Overpasses (SNOs) Predictions

Prediction of SNOs between GOES-16 and NOAA-20 Satellite Orbit:

Table of predicted SNOs for the next 14.0 days since TLE Epoch: 3/15/2019
Index Date Time (GOES-16) GOES-16 Lat,Lon NOAA-20 Lat,Lon Distance(km) Time Diff (sec)
1 03/17/2019 18:27:03 -0.00, -75.20 -0.15, -75.74 62.58 80
2 03/18/2019 18:10:58 -0.00, -75.20 0.87, -71.21 454.05 80
3 03/20/2019 06:32:47 0.00, -75.21 0.27, -76.49 145.97 80
4 03/21/2019 06:11:22 0.00, -75.21 -0.76, -71.97 371.02 80
5 03/22/2019 18:33:17 -0.00, -75.23 -0.49, -77.26 232.38 80
6 03/23/2019 18:17:13 -0.00, -75.24 0.54, -72.73 285.12 80
7 03/25/2019 06:39:01 0.00, -75.26 0.60, -78.01 313.52 80
8 03/26/2019 06:17:36 0.00, -75.27 -0.37, -73.47 204.18 80
9 03/27/2019 18:39:32 0.00, -75.29 -0.81, -78.78 398.42 80
10 03/28/2019 18:23:28 0.00, -75.31 0.22, -74.25 119.66 80




NCC Satellite Simultaneous Nadir Overpasses (SNOs) Prediction Service
